Theta_e
287 287 287 287 287 287 288 288 288 289 289 290 290 290 291 291 291 291 291 290 290 290 289 289 288 288 288 287 286 284 283 283 283 282 282 282 282 282 282 282 282 282 282 282 282 282 282 282 281 281 282 282 282 282 282 282 282 283 283 283 284 285 285 286 286 287 287 287 287 287 288 288 288 288 288 288 288 288 287 287 287 286 287 287 287
287 287 287 287 287 288 288 289 289 289 290 290 291 291 291 291 290 290 290 290 289 289 288 288 287 287 286 285 284 283 282 282 281 281 281 281 281 281 281 281 281 281 281 281 281 281 281 281 281 281 281 281 281 281 281 281 282 282 282 282 283 284 285 285 286 286 286 287 287 287 287 287 288 288 289 289 288 288 288 287 287 286 286 286 286
287 287 287 287 287 288 289 289 289 290 290 291 291 291 291 290 290 289 289 289 288 288 287 287 287 286 286 285 284 283 281 281 281 281 281 281 281 281 281 281 281 281 281 281 281 280 280 280 280 280 280 280 280 281 280 280 280 281 281 281 282 282 283 284 285 285 286 286 286 286 287 287 288 288 288 289 289 288 287 287 286 286 286 286 286
288 287 286 286 288 289 289 290 290 291 291 291 291 290 290 290 289 289 288 288 288 288 287 287 287 286 286 285 283 283 282 281 281 281 281 281 281 281 281 281 280 280 280 280 279 279 279 279 279 279 279 280 279 280 280 279 279 279 279 280 280 280 282 283 283 284 284 285 285 286 286 287 287 288 288 289 289 288 287 287 287 286 286 286 285
288 287 286 287 289 289 290 290 290 291 291 291 290 290 290 289 289 288 288 288 288 287 287 287 286 286 286 285 283 282 282 281 281 280 280 280 280 280 280 280 280 279 279 279 279 279 279 279 279 279 279 279 278 278 278 278 278 278 278 279 278 279 279 280 281 282 282 283 284 285 285 286 287 287 287 287 287 287 287 287 287 286 286 285 285
287 287 286 287 289 290 290 290 290 290 290 290 290 289 289 289 288 288 287 287 287 287 286 286 285 285 285 283 282 281 280 280 279 279 279 279 279 279 279 279 279 279 279 278 278 278 279 278 278 278 278 278 278 278 277 277 277 278 278 278 278 278 278 278 278 279 280 282 283 284 284 285 285 285 285 285 286 286 286 286 287 287 286 286 285
287 287 287 289 290 290 290 290 290 290 290 290 289 289 288 288 287 287 286 286 286 285 285 285 284 284 283 281 280 279 279 278 278 278 278 278 279 279 279 279 278 278 278 278 278 278 278 278 278 278 278 278 278 277 277 277 277 277 277 277 277 277 277 276 277 278 279 280 281 282 283 283 284 284 284 285 285 285 285 285 286 286 286 286 286
287 288 289 290 291 291 290 290 290 289 289 289 288 288 288 287 287 287 286 285 285 285 284 284 283 282 281 279 278 278 277 277 277 277 277 278 278 278 278 278 278 278 278 278 277 277 278 278 277 277 277 277 277 277 277 277 277 277 277 277 277 276 276 276 276 276 277 277 279 280 281 282 283 283 283 283 284 284 284 284 285 285 285 285 286
289 289 291 291 291 291 290 290 289 289 288 288 288 287 287 287 287 286 286 285 284 284 283 283 282 281 279 278 277 277 276 276 276 276 276 277 277 277 277 277 277 277 276 276 276 276 277 277 277 277 277 277 277 277 276 277 277 277 277 276 276 276 276 276 275 275 275 276 277 278 279 280 281 282 282 283 283 283 283 284 284 284 285 285 285
290 291 291 291 290 290 289 289 288 288 288 287 287 287 287 287 286 286 285 284 284 283 283 282 281 279 278 277 276 276 276 276 275 275 275 275 276 276 276 276 276 276 276 276 275 276 276 276 276 276 276 276 276 276 276 276 276 276 276 276 276 276 276 275 275 275 275 275 275 276 277 278 279 280 281 282 282 283 283 283 284 284 284 284 284
291 291 291 290 290 289 289 288 288 287 287 287 287 287 286 286 285 284 284 283 283 282 281 280 279 277 276 276 276 275 275 275 275 274 274 275 275 275 275 275 275 275 275 275 275 275 275 275 276 276 276 275 275 275 275 275 275 275 275 275 275 275 275 275 275 274 274 274 274 274 275 276 278 279 280 281 281 282 282 282 283 283 283 284 284
291 291 290 290 290 289 289 288 287 287 287 287 286 286 285 285 284 283 283 282 282 281 280 279 277 276 276 275 275 274 274 274 274 274 274 274 274 274 274 274 274 274 274 274 274 274 274 274 274 275 274 274 274 274 274 274 274 274 274 274 274 274 274 274 274 274 274 274 274 274 274 275 276 277 278 279 280 280 281 281 282 282 282 283 283
291 290 290 290 290 289 289 288 287 287 287 286 286 285 284 283 283 282 281 281 280 279 278 277 276 275 275 275 274 274 274 273 273 273 273 273 273 273 273 273 273 273 273 273 273 273 273 273 273 273 273 273 273 273 273 273 273 273 273 273 273 273 273 273 273 273 273 273 273 273 273 273 274 275 276 276 277 278 279 279 280 281 281 281 282
290 290 290 290 290 289 288 288 287 287 286 286 285 284 283 282 281 281 280 279 279 277 276 275 275 275 274 274 274 274 273 273 272 272 272 273 273 272 272 272 272 272 272 272 272 273 273 272 272 272 272 272 272 272 272 272 272 272 272 272 272 272 272 272 272 272 272 272 272 272 272 273 273 273 274 274 275 276 276 277 278 279 280 280 281
290 290 290 290 289 289 288 288 287 287 286 285 284 283 282 281 281 280 280 278 277 276 275 274 274 274 274 273 273 273 273 272 272 271 272 272 272 272 272 272 272 272 272 272 272 272 272 272 272 272 272 272 272 272 271 271 271 271 271 272 272 272 272 272 272 272 272 271 271 271 272 272 272 272 273 273 274 275 276 276 277 277 278 279 280
289 289 289 289 289 288 288 287 287 286 285 284 283 282 281 281 280 279 278 277 275 274 274 273 273 273 273 273 272 272 272 272 271 271 271 271 271 271 271 271 271 271 271 271 271 271 271 271 271 271 271 271 271 271 271 271 271 271 271 271 271 271 271 271 271 271 271 271 271 271 271 271 271 271 272 272 273 274 275 276 276 277 277 278 279
289 289 289 288 288 287 287 286 286 285 284 283 282 281 281 280 279 279 277 276 274 273 273 273 273 273 272 272 272 272 272 271 271 270 270 270 270 270 270 270 270 270 270 270 270 270 270 270 270 270 271 270 270 270 270 270 270 270 270 270 270 270 270 270 270 271 271 271 271 271 271 271 271 271 271 271 271 272 273 273 275 276 277 278 278
289 289 288 287 287 286 286 285 285 284 284 283 282 281 280 279 279 278 277 275 273 273 273 272 272 272 272 272 272 271 271 271 270 270 270 270 270 270 269 269 269 269 269 270 270 270 270 270 270 270 270 270 270 270 270 270 269 269 269 270 270 270 270 270 269 269 270 270 270 270 270 270 270 270 270 271 271 271 271 271 272 273 275 276 277
287 288 287 286 286 285 284 284 284 283 282 282 281 280 280 279 278 277 276 274 273 272 272 272 272 272 272 272 271 271 271 271 270 270 270 270 269 269 269 269 269 269 269 269 269 269 269 269 269 269 269 269 269 269 269 269 269 269 269 269 269 269 269 269 269 269 269 269 269 269 269 269 269 269 270 270 270 270 270 270 271 271 272 273 275
287 288 287 286 286 285 283 283 283 282 281 281 280 280 279 278 277 276 275 273 273 272 272 272 271 271 271 271 271 271 270 270 270 270 269 269 269 269 269 269 268 268 268 268 268 268 268 268 268 268 268 268 268 268 268 268 268 269 269 269 269 269 269 269 269 269 269 269 269 269 269 269 269 269 269 269 269 269 269 270 270 270 271 271 273
288 288 288 287 286 285 283 283 282 281 281 280 280 279 278 277 276 275 274 272 272 271 271 271 271 271 270 270 270 270 270 270 269 269 269 269 268 268 268 268 268 268 268 268 268 268 268 268 268 268 268 268 268 268 268 268 268 268 268 268 268 268 268 268 268 268 268 268 268 268 268 269 269 268 269 269 269 269 269 269 270 270 270 270 271
289 288 288 287 286 285 283 282 282 281 280 279 279 279 278 277 276 275 274 272 271 271 270 270 270 270 270 270 269 269 269 269 269 268 268 268 268 268 268 268 268 268 268 268 267 267 267 267 267 268 268 268 268 268 267 267 267 268 268 268 268 268 268 268 268 268 268 268 268 268 268 268 268 268 269 269 269 269 269 269 270 270 269 270 270
289 288 287 287 286 284 283 282 281 280 279 278 278 278 277 276 276 275 273 271 270 270 270 269 269 269 269 269 269 268 268 268 268 268 268 268 267 267 267 267 267 267 267 267 267 267 267 267 267 267 267 267 267 267 267 267 267 267 267 267 267 267 267 268 268 267 267 267 268 268 268 268 268 268 269 269 269 269 269 269 269 269 269 269 269
289 288 287 286 285 284 282 281 280 279 278 277 277 277 276 276 275 275 273 271 270 270 269 269 269 269 268 268 268 268 268 268 268 267 267 267 267 267 267 267 267 267 267 267 267 267 267 267 267 267 267 267 267 267 267 267 267 267 267 267 267 267 267 267 267 267 267 267 268 268 268 268 268 268 269 269 269 269 269 269 268 268 268 268 269
288 288 287 286 285 284 282 281 279 278 277 277 276 276 276 276 276 274 272 270 270 269 269 269 269 269 268 268 268 268 268 268 267 267 267 267 267 267 267 267 267 267 267 267 267 267 266 266 266 267 266 266 266 266 266 267 267 267 267 267 267 267 267 267 267 267 267 268 268 268 268 268 269 269 269 269 269 269 269 269 269 269 268 268 268
288 287 287 286 285 284 282 281 280 278 277 277 276 276 276 276 275 273 271 270 270 269 269 269 269 269 268 268 268 268 268 267 267 267 267 267 267 267 267 267 266 266 266 266 266 266 266 266 266 266 266 266 266 266 266 266 266 266 266 266 266 267 267 267 267 267 267 268 268 268 268 269 269 269 269 269 270 270 270 270 269 269 269 269 269
288 287 286 285 285 284 283 282 280 278 277 277 277 276 276 275 274 272 271 270 270 269 269 269 269 269 268 268 268 267 267 267 267 267 267 267 267 266 266 266 266 266 266 266 266 266 266 266 266 266 265 265 265 265 266 266 266 266 266 266 266 266 266 266 267 267 267 268 268 269 269 269 269 269 270 270 270 270 270 270 270 270 269 269 268
287 287 286 285 285 284 283 281 280 278 277 277 277 276 275 274 273 271 270 270 269 269 269 269 269 268 268 268 267 267 267 267 267 267 267 266 266 266 266 266 266 266 266 266 266 265 266 266 265 265 265 265 265 265 266 266 266 266 266 266 266 266 266 267 267 267 268 268 268 269 269 269 269 270 270 270 270 270 270 270 270 270 269 269 268
287 286 285 285 284 284 283 281 279 278 277 277 276 275 274 273 272 270 270 269 269 268 268 268 268 268 267 267 267 267 267 267 267 266 266 266 266 266 266 266 266 266 266 265 265 265 265 265 265 265 265 265 265 266 266 266 266 266 266 266 266 267 267 267 267 268 268 268 268 269 269 269 270 270 270 270 270 270 270 270 270 270 270 269 268
287 286 285 284 284 283 282 281 279 278 277 277 276 274 273 272 271 270 269 269 268 268 268 268 268 267 267 267 266 266 266 266 266 266 266 266 266 266 266 266 265 265 265 265 265 265 265 265 265 265 265 265 265 266 266 266 266 265 265 265 266 266 266 266 266 266 267 268 268 269 269 270 270 270 270 271 271 271 271 270 270 270 270 270 269
286 285 284 284 283 282 281 280 278 277 277 276 275 274 273 272 270 269 269 268 268 268 268 267 267 267 267 266 266 266 266 266 266 266 266 266 265 265 265 265 265 265 265 265 265 265 265 265 265 265 265 265 265 265 266 266 265 265 266 265 265 265 265 265 265 266 266 267 268 268 269 269 270 270 270 271 271 271 271 271 271 270 270 270 269
286 285 284 283 282 281 280 279 278 277 276 275 274 273 272 271 270 269 268 268 268 267 267 267 267 267 266 266 266 266 266 266 266 266 265 265 265 265 265 265 265 265 265 265 265 265 265 265 265 265 265 265 265 265 266 265 265 266 266 266 266 266 265 265 266 266 267 268 268 269 269 269 270 270 270 271 271 271 271 271 271 271 270 270 270
285 284 283 282 282 281 280 278 277 277 276 275 274 273 271 270 269 268 268 268 267 267 267 267 267 266 266 266 266 265 265 265 265 265 265 265 265 265 265 265 265 265 265 265 265 265 265 265 265 265 265 265 265 265 265 265 265 266 267 267 267 266 266 266 266 267 267 268 269 269 269 270 270 270 270 271 271 270 271 271 271 271 270 270 271
284 283 282 281 281 280 279 278 276 275 275 274 273 272 271 270 269 268 268 268 267 267 267 267 266 266 266 266 265 265 265 265 265 265 265 265 265 265 264 264 264 264 264 264 264 264 264 264 264 264 264 265 265 265 265 265 265 266 266 267 266 266 266 266 266 267 267 268 269 269 269 269 270 270 271 270 270 270 270 271 271 271 271 271 271
284 283 282 281 280 279 278 277 275 274 274 274 273 272 270 269 268 268 268 267 267 267 266 266 266 266 266 265 265 265 265 265 265 265 265 265 264 264 264 264 264 264 264 264 264 264 264 264 264 264 264 264 265 265 265 265 265 266 266 266 266 266 266 266 266 266 267 268 268 269 269 269 270 270 270 270 270 270 271 271 271 271 271 271 271
283 282 281 281 280 279 278 276 275 274 274 273 272 271 269 269 268 268 267 267 267 267 266 266 266 266 266 265 265 265 265 265 265 265 265 264 264 264 264 264 264 264 264 264 263 263 263 264 264 264 264 264 265 265 264 264 265 266 266 265 265 265 265 265 266 266 267 267 268 268 269 269 270 270 270 270 270 271 271 271 272 271 271 271 271
282 281 281 280 279 278 277 276 275 274 273 272 271 270 269 268 268 267 267 267 267 266 266 266 266 266 265 265 265 264 264 264 264 264 264 264 264 264 264 263 263 263 263 263 263 263 263 263 263 263 263 264 264 264 264 264 265 265 265 265 265 265 265 265 265 266 266 267 267 268 268 269 269 269 269 269 270 271 271 271 272 272 271 272 271
281 280 280 279 278 277 276 275 274 273 273 272 270 269 268 267 267 267 267 267 266 266 266 266 266 266 265 265 265 264 264 264 264 264 264 264 264 264 263 263 263 263 263 263 263 263 263 263 263 263 263 263 264 264 264 263 264 265 265 265 265 264 265 265 265 266 266 267 267 268 268 268 268 268 269 269 270 271 271 271 271 271 272 272 272
281 280 279 278 276 276 275 275 274 273 272 271 270 269 268 267 267 266 266 266 266 266 266 265 265 265 265 265 264 264 264 264 264 264 264 264 263 263 263 263 263 263 263 263 263 263 263 263 262 263 263 263 263 264 263 263 264 265 265 265 265 264 264 265 265 265 266 266 267 267 267 268 268 268 268 269 270 271 271 271 271 271 271 272 272
281 280 278 277 275 275 275 274 273 272 271 270 269 268 267 267 267 266 266 266 266 266 265 265 265 265 265 264 264 264 264 264 264 263 263 263 263 263 263 263 263 263 263 262 262 262 262 262 262 262 263 263 263 263 263 263 264 265 265 265 264 264 264 264 265 265 266 266 266 266 267 267 267 267 268 269 270 271 271 271 270 271 271 272 272
280 279 278 276 275 274 274 273 272 272 271 270 269 268 267 267 266 266 266 266 266 265 265 265 265 265 265 264 264 264 263 263 263 263 263 263 263 263 263 263 262 262 262 262 262 262 262 262 262 262 262 263 263 263 263 263 263 264 264 265 264 264 264 264 264 265 265 265 265 265 266 266 266 267 268 268 269 270 270 270 270 271 272 273 273
279 278 277 276 274 273 273 272 272 271 270 269 268 268 267 266 266 266 266 266 265 265 265 265 265 265 264 264 264 263 263 263 263 263 263 263 263 263 263 262 262 262 262 262 262 262 262 262 262 262 262 262 263 263 263 263 263 263 264 264 264 264 264 264 264 265 265 264 265 265 265 265 265 266 267 268 268 269 270 270 270 270 272 273 273
278 277 277 276 274 273 272 271 271 270 269 269 268 267 267 266 266 266 266 265 265 265 265 265 265 265 264 264 264 263 263 263 263 263 263 263 263 262 262 262 262 262 262 262 262 262 262 262 262 261 262 262 262 262 262 262 262 262 263 264 264 264 264 264 264 264 264 264 264 264 264 264 265 266 267 267 268 268 269 269 270 270 271 272 273
278 277 276 275 274 273 272 271 270 269 269 268 267 267 266 266 266 266 265 265 265 264 264 264 264 264 264 264 264 263 263 263 263 263 262 262 262 262 262 262 262 262 262 262 262 262 261 261 261 261 261 262 262 262 262 262 261 262 262 262 263 263 263 263 263 263 263 263 264 264 264 264 265 265 266 267 267 267 268 268 269 270 270 271 272
277 276 275 274 273 272 271 270 270 269 268 268 267 267 266 266 266 265 265 264 264 264 264 264 264 264 264 264 263 263 263 263 262 262 262 262 262 262 262 262 262 262 261 261 261 261 261 261 261 261 261 261 261 261 262 262 261 261 261 262 262 262 262 262 262 262 263 263 263 263 263 264 264 265 265 266 266 267 267 268 269 269 269 270 272
276 275 274 273 272 271 270 270 269 268 268 267 267 266 266 266 265 265 265 264 264 264 264 264 264 264 264 264 263 263 263 263 262 262 262 262 262 262 262 262 262 261 261 261 261 261 261 261 261 260 259 260 260 260 261 261 261 261 261 261 261 261 261 261 262 262 262 262 262 262 263 263 263 264 264 265 266 266 267 268 269 268 269 270 271
275 274 273 272 271 270 270 269 268 268 267 267 266 266 266 265 265 265 264 264 264 264 264 264 264 264 264 263 263 263 263 262 262 262 262 262 262 262 262 262 262 261 261 261 260 260 260 261 260 260 259 259 259 259 260 261 261 261 261 261 261 260 261 261 261 262 262 261 261 262 262 262 263 263 264 264 265 266 267 268 268 268 268 269 270
274 273 272 271 270 269 269 269 268 267 267 266 266 266 266 265 265 264 264 264 264 264 264 264 264 264 263 263 263 263 262 262 262 262 262 262 262 262 261 261 261 261 261 260 260 260 261 261 260 259 259 259 259 259 260 260 261 261 261 260 260 260 261 261 261 261 261 261 261 262 262 262 262 263 263 264 265 266 267 268 268 268 268 268 269
273 272 271 270 269 269 269 268 267 267 266 266 266 266 266 265 265 264 264 264 264 264 264 264 264 263 263 263 263 262 262 262 262 262 262 262 262 262 261 261 261 261 261 261 261 261 261 261 260 259 259 259 259 259 260 261 261 261 261 260 260 260 261 261 261 261 261 261 261 261 261 261 262 262 263 264 265 266 267 267 268 267 267 268 268
271 271 270 270 269 268 268 268 267 267 266 266 266 266 265 265 264 264 264 264 264 264 263 264 264 263 263 263 262 262 262 262 262 262 262 262 262 262 261 261 261 261 261 261 261 261 261 261 260 259 259 259 259 259 260 260 261 261 261 261 261 261 261 261 261 261 261 261 261 260 261 261 261 262 262 263 264 265 266 267 267 267 267 267 267
270 270 269 269 268 268 267 267 266 266 266 266 266 265 265 265 264 264 263 263 264 263 263 264 263 263 263 263 262 262 262 262 262 261 261 261 261 261 262 262 261 261 261 261 261 261 261 261 260 260 260 260 260 260 260 260 261 261 261 261 261 261 261 261 261 260 261 261 260 260 260 261 261 261 261 262 262 263 264 265 266 266 266 266 266
Wind_Speed
17 18 19 18 18 17 17 16 14 13 13 12 12 13 15 16 18 19 21 23 24 26 28 29 30 30 30 29 28 25 24 23 23 22 21 20 19 19 19 19 19 19 19 19 19 19 18 18 18 19 20 20 20 20 19 20 20 21 20 21 21 20 19 18 17 19 22 24 26 24 22 22 22 23 23 23 24 24 20 20 21 19 18 19 22
16 17 17 16 16 15 14 14 13 12 13 14 15 17 19 21 23 24 26 27 28 30 30 32 32 32 32 30 28 26 23 23 23 23 21 20 19 19 18 18 18 18 19 18 18 18 18 18 18 18 19 19 20 19 18 18 18 19 20 21 19 18 18 17 16 17 17 18 20 23 24 22 19 16 17 20 24 23 17 18 21 20 21 22 22
14 15 15 15 14 13 13 13 14 14 15 17 19 21 23 25 26 27 28 29 30 31 31 32 32 33 32 31 29 26 23 23 23 23 23 21 20 20 19 19 18 18 18 18 18 18 18 19 18 18 19 19 19 19 18 18 18 20 21 21 20 20 18 16 13 13 14 16 18 19 19 19 17 14 14 16 18 17 14 17 20 19 20 22 22
13 13 14 13 12 12 13 14 16 17 18 20 22 24 25 26 27 27 28 29 30 31 31 32 32 33 33 32 30 27 24 24 23 22 22 22 21 21 20 20 20 19 19 18 18 18 18 19 18 18 18 18 18 19 18 18 18 19 20 20 20 20 18 16 15 14 15 15 14 15 15 17 17 14 13 13 13 15 17 18 18 17 19 24 25
12 12 12 12 12 13 15 16 18 19 21 22 24 25 26 26 26 27 28 29 30 31 32 33 33 34 34 33 32 29 27 26 25 24 23 23 22 21 21 21 20 20 19 19 19 19 19 19 19 18 18 18 18 18 18 17 17 18 20 21 20 20 20 21 21 18 17 15 13 15 14 13 14 15 20 22 18 17 19 17 18 20 23 24 24
10 11 10 10 12 15 17 18 19 20 21 23 24 26 26 26 27 27 29 30 31 32 33 33 34 35 35 35 32 31 29 27 26 26 25 24 23 22 21 21 21 20 20 19 20 21 20 19 20 19 18 18 17 17 17 17 18 20 21 21 21 21 21 22 22 20 19 17 15 15 15 16 19 20 22 24 21 20 19 18 20 21 22 21 22
9 8 8 9 12 15 18 19 20 21 21 23 24 25 25 26 27 28 30 32 33 34 35 35 36 36 35 34 31 29 28 27 26 26 26 25 23 22 21 21 21 21 21 20 21 22 21 20 20 20 19 19 18 18 18 18 20 21 21 21 22 21 20 21 21 20 19 18 15 16 18 19 21 21 20 22 25 26 23 20 21 21 21 22 23
6 5 7 9 12 15 18 19 20 22 22 23 23 24 24 25 27 29 30 32 34 35 36 37 37 37 34 31 29 26 25 25 25 25 25 24 24 23 21 21 21 21 21 21 21 22 22 21 21 21 20 20 20 19 20 20 21 22 22 22 21 21 20 20 21 21 20 20 17 16 18 19 19 21 22 22 24 28 28 23 21 21 22 24 24
3 5 8 9 12 14 16 19 20 21 21 22 23 23 24 25 26 28 31 32 33 34 36 37 37 36 32 29 27 25 24 24 24 23 24 24 23 22 21 21 20 21 21 22 22 22 23 22 22 22 22 21 21 21 21 22 23 23 23 22 22 22 22 22 22 21 19 19 18 17 17 18 18 19 21 22 23 27 30 27 22 21 22 23 22
4 6 7 8 11 14 16 19 20 20 21 22 23 24 24 25 26 28 31 33 33 34 36 36 36 34 30 27 25 24 23 23 22 22 23 23 22 22 21 21 20 21 21 21 23 23 24 24 24 24 23 23 24 23 23 24 24 25 25 24 24 23 23 22 22 22 21 21 21 20 20 19 19 19 19 20 21 24 28 29 26 24 25 24 22
5 6 7 9 12 14 17 19 20 20 21 22 23 24 24 25 26 28 30 33 34 35 37 36 34 31 28 26 24 23 22 22 22 22 22 23 23 22 22 21 21 21 22 22 23 24 25 24 25 25 25 25 25 25 25 25 25 26 26 26 25 24 23 23 24 23 23 24 23 22 21 19 18 19 18 18 21 23 25 28 27 25 27 27 23
8 10 11 13 14 15 18 19 20 21 21 22 23 24 24 25 27 28 30 33 35 36 37 35 31 28 26 25 24 22 22 22 22 22 23 23 23 23 23 22 22 22 23 23 24 25 25 25 25 25 25 25 25 25 25 25 26 26 26 26 26 25 25 24 25 24 23 23 23 22 22 20 20 20 20 19 21 22 24 28 28 25 29 31 25
12 14 15 16 16 17 18 20 21 22 22 22 23 24 25 25 27 29 31 33 36 36 35 31 27 25 25 24 23 22 21 21 22 22 23 24 23 24 24 24 24 24 24 24 25 26 26 26 26 26 25 25 25 25 26 25 26 26 26 26 26 26 26 25 25 25 24 24 24 23 23 23 24 23 23 23 23 24 24 28 28 26 29 33 28
16 17 18 18 18 19 21 21 22 22 23 24 24 24 25 25 27 30 32 35 37 35 31 27 25 23 24 24 23 22 21 21 21 22 23 24 23 24 24 24 24 25 25 25 25 26 26 26 26 27 26 26 25 25 25 25 25 26 26 26 26 25 25 25 25 24 24 24 24 25 25 25 26 25 25 25 24 24 24 26 27 27 29 32 31
17 19 20 19 20 21 22 23 23 24 25 25 24 24 25 26 28 32 35 36 35 32 27 25 24 23 23 23 22 22 21 20 20 21 22 23 23 23 24 24 24 24 25 25 25 26 26 26 26 27 27 26 26 26 26 26 26 26 27 26 26 26 25 25 25 25 25 25 24 25 26 26 26 26 25 25 22 22 23 23 24 27 29 30 30
16 19 20 20 21 22 23 24 25 25 25 25 25 25 25 27 30 34 37 36 31 28 25 24 24 23 22 22 22 21 21 20 19 20 22 23 23 23 23 24 24 24 25 25 26 26 26 27 27 27 27 27 27 27 26 26 26 27 27 27 27 26 26 26 26 26 25 25 25 25 25 26 26 25 26 26 24 23 23 22 22 24 27 29 29
15 19 20 20 20 21 22 24 26 26 26 25 25 25 26 28 32 35 37 33 28 25 24 24 24 24 23 22 22 21 21 20 20 20 22 23 23 23 23 24 24 24 25 26 26 26 26 27 27 27 27 27 27 27 27 27 27 28 28 28 28 27 27 27 27 27 26 26 26 26 26 27 26 26 26 25 25 26 26 26 25 24 24 27 28
15 18 20 20 20 20 22 24 25 26 27 26 25 25 26 29 32 35 35 30 26 24 24 23 24 24 23 23 22 22 21 21 20 20 22 23 23 23 23 24 24 24 25 25 26 26 26 26 27 27 27 27 27 27 27 28 28 29 29 29 29 28 28 28 27 27 27 27 27 27 27 27 27 26 26 26 26 27 28 29 29 29 28 28 29
15 16 18 19 18 18 20 23 24 26 26 26 25 25 27 29 32 35 33 28 24 23 23 23 23 23 23 22 22 21 21 21 20 21 21 22 23 23 23 24 24 25 25 26 26 26 27 27 27 27 27 27 27 27 28 28 28 29 29 29 29 28 29 29 28 28 28 27 27 28 27 27 27 26 26 26 26 26 27 27 29 30 30 31 30
16 16 17 17 14 14 17 22 24 25 26 26 25 25 27 29 32 33 31 27 24 23 23 23 22 22 22 22 22 21 21 21 20 20 21 22 23 23 24 24 25 25 25 26 26 26 27 27 27 28 28 28 28 28 28 28 29 29 29 29 29 29 29 30 29 29 29 28 28 28 27 26 25 25 25 25 25 25 26 27 28 29 29 31 31
17 17 17 18 17 17 20 23 25 26 27 27 26 26 28 30 32 32 30 27 24 22 22 22 22 22 22 22 22 21 21 20 20 20 21 22 22 23 24 24 25 26 26 26 26 27 27 27 28 28 28 28 29 29 29 29 29 30 30 30 30 30 30 30 30 30 29 28 28 27 27 25 24 24 25 25 26 27 27 28 28 28 29 30 29
19 20 21 22 21 20 22 23 24 25 25 25 25 26 27 29 32 33 31 27 24 23 22 22 22 22 22 22 22 21 21 20 20 21 21 22 22 23 24 25 25 26 26 26 27 27 27 27 28 28 28 29 29 29 29 30 30 30 30 30 30 30 31 30 30 30 29 27 26 26 26 25 25 26 27 28 28 28 28 29 29 28 30 29 27
22 23 24 24 22 20 20 21 23 24 24 24 25 25 26 29 32 32 29 25 23 22 22 22 22 22 22 22 21 21 20 21 21 21 22 22 22 23 24 25 26 26 26 26 27 27 28 28 29 29 29 29 30 30 30 30 30 31 31 31 31 31 31 31 31 30 28 27 26 27 27 27 27 28 30 30 30 30 30 30 31 30 30 31 28
24 25 25 24 23 21 20 19 20 20 21 21 22 23 25 29 33 32 28 23 22 22 22 22 22 23 23 22 22 21 21 21 22 22 22 23 23 24 25 26 26 27 27 27 27 27 28 28 29 29 29 30 30 31 31 31 31 31 31 32 31 31 31 31 31 29 28 27 27 29 29 28 29 30 31 31 31 32 32 32 33 32 31 32 31
25 26 26 25 25 24 22 21 19 17 17 18 19 22 26 31 34 32 26 23 22 22 22 22 23 23 23 23 22 22 22 22 22 23 24 24 25 25 26 26 27 27 27 27 27 28 28 29 29 29 30 30 31 31 31 31 31 31 31 32 31 31 31 31 30 29 27 27 29 30 30 29 29 31 32 32 32 33 34 35 36 36 34 34 35
26 26 27 27 26 24 23 22 21 18 17 19 21 25 31 35 34 30 25 24 23 22 23 23 23 24 23 23 23 22 22 22 23 24 24 25 25 26 26 26 26 27 27 27 28 28 29 29 29 30 30 31 31 31 32 31 31 31 31 31 31 32 32 31 30 29 28 29 30 30 30 29 30 32 32 33 33 34 36 37 38 39 39 39 39
27 28 28 27 26 25 24 23 22 19 19 22 25 29 34 35 32 28 25 24 23 23 23 23 24 24 23 23 23 22 23 23 24 24 24 25 25 25 26 26 26 27 27 28 28 29 30 30 30 31 31 31 32 32 32 32 32 32 31 31 32 32 32 31 30 29 29 30 30 29 30 30 31 32 32 32 34 36 37 38 38 39 40 41 42
28 29 29 28 27 26 25 23 22 21 21 24 28 31 33 32 29 27 25 23 23 23 23 24 24 23 23 23 23 23 23 24 24 25 25 25 25 25 26 26 26 27 27 28 28 29 30 30 30 31 31 31 32 32 32 32 32 31 31 31 30 30 30 29 29 30 30 30 30 30 31 32 31 30 31 32 34 36 37 39 39 39 40 41 42
29 29 28 28 27 26 24 23 23 22 23 26 29 29 29 28 27 26 24 23 23 23 23 24 23 23 23 22 23 23 24 24 24 25 24 25 25 25 26 26 26 27 27 28 28 28 29 30 30 31 31 31 32 32 31 31 31 31 30 30 30 29 29 29 30 31 31 31 32 32 32 32 30 30 30 32 33 35 36 39 39 39 41 42 43
30 29 29 28 26 24 23 23 23 23 25 29 30 28 27 27 27 25 24 23 22 23 23 23 23 23 23 22 23 23 24 24 24 24 24 25 25 25 26 26 26 26 27 27 28 28 29 30 30 31 31 31 32 31 30 30 30 30 29 29 30 30 31 32 33 34 35 35 34 34 34 32 31 31 32 32 34 35 37 39 40 40 41 42 43
30 29 29 27 24 23 23 23 22 23 27 29 30 29 28 28 27 26 24 23 22 23 23 24 24 23 22 23 23 23 24 24 24 25 25 25 25 25 25 26 26 27 27 27 28 29 29 29 30 31 31 31 31 31 30 30 29 27 25 25 28 30 33 33 33 35 36 36 36 36 36 35 33 33 33 33 35 37 38 39 40 41 43 43 44
30 29 27 26 24 24 25 23 22 24 27 28 29 29 28 28 27 25 24 24 23 23 24 24 24 23 23 23 23 24 24 25 25 25 25 25 25 25 25 26 27 27 27 28 28 29 29 29 30 31 31 32 32 30 29 30 29 26 23 23 26 30 33 33 33 34 35 35 35 34 34 35 35 35 35 35 36 38 40 41 42 42 42 42 43
29 28 27 26 25 25 24 22 22 26 29 30 30 29 28 27 26 25 24 24 24 24 24 24 24 23 23 23 23 24 25 25 25 25 25 25 25 25 25 26 27 27 27 28 28 28 29 29 30 31 32 32 32 30 29 30 29 25 22 23 26 29 32 33 33 34 34 33 31 30 31 32 34 34 34 35 36 39 42 44 43 42 41 41 41
27 27 27 26 24 23 22 21 22 26 29 30 30 29 28 27 25 25 25 24 24 24 24 24 24 23 23 23 24 25 25 25 25 25 25 25 25 25 25 26 27 27 28 28 28 29 29 29 30 31 32 32 31 30 30 30 28 25 23 24 26 29 31 33 33 34 33 31 29 30 31 31 32 32 32 33 36 40 42 43 43 42 41 40 39
29 29 28 25 23 22 21 20 21 25 29 30 30 28 27 26 25 25 25 24 25 25 25 25 24 23 23 23 24 25 25 25 25 25 25 25 24 25 25 25 27 27 28 28 29 29 30 30 30 30 32 32 31 29 30 30 27 24 24 25 27 29 30 31 32 33 32 31 30 31 31 31 31 32 32 33 37 39 39 41 43 44 42 39 38
31 30 28 26 23 21 21 22 24 28 30 30 29 27 26 25 25 25 25 25 25 25 25 25 24 24 24 23 24 25 25 25 25 25 25 24 24 25 24 25 27 27 28 28 29 30 30 30 30 30 31 32 31 28 29 30 27 24 23 24 25 27 28 29 30 30 31 31 31 32 31 31 32 34 35 35 36 36 37 39 41 43 45 43 40
29 29 28 26 24 23 25 27 29 31 30 29 27 26 25 25 25 25 25 25 25 25 25 24 24 24 24 23 24 24 25 25 25 25 25 25 25 25 24 25 27 28 28 28 29 30 31 31 31 31 31 32 31 29 28 29 27 24 22 22 24 25 26 26 27 29 30 30 31 31 30 31 33 35 36 36 34 34 36 38 39 41 43 44 43
28 27 27 24 24 27 29 30 30 30 29 28 26 25 24 25 25 25 25 25 25 25 24 24 24 24 23 23 23 24 25 25 25 25 25 25 25 25 25 25 27 28 29 29 29 30 31 31 31 31 30 32 32 30 28 28 25 21 19 20 23 25 24 25 26 27 28 28 30 30 30 31 33 35 37 37 35 34 35 38 39 40 41 43 44
27 25 24 21 22 26 29 30 31 31 29 27 25 24 24 25 25 25 25 25 25 24 23 23 24 24 23 23 23 24 25 25 25 25 25 25 25 25 25 25 27 28 29 29 29 30 31 31 31 30 30 30 31 30 28 26 22 18 17 19 22 23 23 24 25 26 27 28 28 29 31 33 34 35 37 37 34 33 36 39 40 40 40 41 42
28 25 22 21 24 29 31 31 32 30 28 26 25 24 25 26 26 25 25 25 24 22 22 24 24 24 23 23 23 24 24 25 25 25 25 25 25 25 26 26 27 28 29 29 29 29 31 32 30 30 29 29 30 30 28 24 20 17 17 19 21 23 23 24 26 27 29 28 26 28 32 35 36 36 37 36 34 33 37 40 40 39 38 38 39
27 23 21 22 25 30 33 32 30 29 27 26 25 25 26 26 26 26 26 24 23 22 23 24 24 24 24 23 23 23 24 25 25 25 26 26 25 26 26 26 28 29 29 29 29 29 31 32 30 29 29 28 28 28 27 24 20 17 17 18 20 23 23 25 28 29 28 26 25 27 31 35 36 36 35 36 35 35 36 38 39 38 35 35 35
23 20 21 24 25 26 29 31 29 27 27 27 26 26 26 25 25 26 25 23 23 24 24 25 25 25 24 23 23 23 23 24 25 25 26 26 25 26 26 26 28 29 29 29 29 29 31 32 31 29 29 28 28 28 27 25 23 20 18 17 20 22 23 26 28 28 26 25 25 26 29 34 36 34 34 36 36 36 36 38 39 38 34 32 31
19 16 18 23 25 25 26 28 27 27 27 26 25 25 25 25 26 24 23 22 24 25 24 24 25 25 24 24 23 23 23 24 25 25 26 26 25 25 26 26 28 29 29 29 29 29 30 32 32 30 28 28 28 27 27 27 27 24 21 18 19 21 23 25 28 27 26 27 26 27 31 36 36 34 35 36 35 36 36 37 39 38 34 30 26
20 16 18 22 25 25 25 26 25 26 27 26 24 25 25 26 25 22 21 23 25 25 25 25 25 25 25 24 23 23 23 23 24 25 26 26 26 25 26 27 27 28 29 29 28 29 30 31 31 30 28 28 28 28 29 29 29 28 24 21 21 22 24 26 27 27 27 27 27 28 33 36 35 34 34 33 32 32 33 34 38 38 32 27 24
20 18 20 23 24 24 27 27 25 25 26 25 24 25 25 25 23 21 22 24 25 25 25 25 25 25 25 24 24 23 23 23 23 24 25 25 26 26 26 26 27 28 28 28 28 28 29 30 30 29 28 28 29 30 30 30 30 30 27 24 24 25 26 26 26 27 28 28 28 31 35 37 35 33 31 29 28 28 30 32 35 33 28 24 21
21 21 22 24 24 23 25 26 25 25 24 24 24 25 25 24 23 22 23 24 24 25 25 25 25 25 24 24 24 23 23 23 23 24 25 25 25 26 26 26 27 28 27 27 27 27 28 29 29 27 26 28 30 31 32 31 31 31 29 28 29 29 28 26 26 27 27 27 31 37 40 38 35 32 29 27 26 26 27 29 29 26 21 19 18
26 28 29 28 25 24 24 25 26 25 23 23 24 24 24 24 23 23 23 24 25 25 26 25 25 25 24 24 24 23 23 23 23 23 24 24 25 25 26 27 28 28 27 26 26 26 27 28 28 26 26 27 28 30 33 34 32 30 30 31 33 32 28 26 25 26 27 29 35 40 40 36 33 31 27 24 22 22 23 24 24 20 15 13 14
32 32 31 27 25 24 25 25 26 24 23 23 24 24 23 23 23 23 24 25 25 26 26 26 25 25 25 24 24 23 23 24 24 24 24 24 24 25 26 26 27 27 27 26 26 26 26 26 27 27 26 25 25 28 34 35 32 30 31 33 33 31 27 26 27 27 29 34 38 39 36 32 30 29 26 23 20 19 19 19 19 17 14 12 11
32 30 28 25 24 25 26 26 25 23 23 23 23 23 23 22 22 22 23 24 25 26 26 26 25 25 25 24 23 23 23 24 24 25 24 24 24 24 25 26 26 26 26 26 25 25 25 26 27 27 25 24 26 31 35 33 29 28 29 31 31 28 27 29 30 29 32 37 38 35 31 28 27 26 25 22 20 18 18 17 16 15 14 12 11
30 29 27 26 25 25 26 26 24 23 23 23 23 22 22 21 21 22 22 24 25 26 27 26 25 24 24 23 23 23 23 24 25 25 26 26 25 24 24 25 26 26 26 25 24 24 24 25 27 28 26 26 29 33 34 30 27 27 27 28 29 29 29 30 30 30 34 37 34 29 27 26 25 23 22 21 20 19 18 17 16 14 13 12 11
33 30 29 28 26 24 25 25 24 23 22 22 22 22 21 21 21 21 22 24 25 26 27 26 24 24 23 23 23 23 23 24 25 25 26 27 28 27 25 24 24 25 25 24 22 22 23 23 25 27 28 29 30 31 30 28 27 27 26 26 27 28 29 29 29 32 34 32 28 25 24 23 22 21 20 19 18 18 18 18 17 16 14 13 12
Wind_Direction
78 76 79 84 85 84 82 77 70 66 59 49 42 31 22 15 7 1 358 354 352 352 350 347 345 342 342 340 339 340 334 330 328 326 324 322 318 315 312 309 307 305 303 302 301 300 298 295 294 293 292 292 292 292 293 294 295 296 295 294 296 298 298 296 295 295 295 297 301 301 297 291 292 295 292 279 280 293 290 277 285 291 287 290 292
79 73 73 76 77 76 71 64 56 49 40 30 24 16 10 5 1 358 355 352 351 351 349 346 343 341 340 338 337 337 333 328 326 324 322 320 317 313 309 306 305 304 303 302 301 301 298 296 296 295 295 294 293 293 293 294 295 293 292 293 294 294 294 296 298 301 301 303 305 304 301 302 305 301 289 274 275 283 272 266 282 288 287 291 293
78 70 66 66 66 65 57 48 39 30 24 17 11 6 3 360 358 356 353 351 348 346 345 342 340 338 337 336 334 333 330 325 323 322 320 318 316 314 311 308 307 306 305 304 303 302 299 299 299 298 298 298 296 296 294 294 294 292 293 293 293 293 294 296 296 297 298 303 306 304 308 314 308 298 296 287 279 277 267 271 280 277 279 288 290
77 69 63 60 56 50 40 30 22 14 8 6 4 360 357 355 354 353 350 348 344 341 339 336 335 333 332 332 330 328 326 322 320 319 317 316 315 313 312 311 310 310 309 308 306 303 302 302 303 301 300 300 299 298 298 298 297 295 294 293 295 296 295 291 285 283 289 299 304 301 306 307 297 302 305 283 268 276 279 276 269 262 272 285 289
76 68 61 53 42 32 23 16 10 5 1 359 357 353 351 349 348 347 345 342 338 336 333 331 330 329 328 327 326 325 324 322 319 318 316 315 314 313 313 312 312 312 311 310 308 304 305 305 304 304 303 302 302 301 301 301 298 294 293 294 296 297 294 291 287 285 285 284 284 290 299 294 286 302 303 286 272 272 275 271 265 269 278 280 280
73 68 61 45 31 21 13 8 5 0 356 351 347 345 344 343 342 341 339 336 333 331 329 328 328 327 327 326 326 325 324 323 321 319 317 315 314 313 312 312 311 311 310 310 308 305 306 307 306 305 305 303 302 301 300 298 293 291 294 296 296 295 294 294 293 291 288 281 274 274 276 277 284 295 299 294 288 279 273 270 269 273 276 271 271
72 65 52 32 19 10 4 1 357 351 346 341 339 338 337 337 336 335 334 332 330 328 327 327 327 327 327 325 324 324 322 321 319 318 317 316 315 314 312 311 309 308 307 307 307 305 305 307 307 307 306 305 304 303 300 296 294 294 296 296 296 296 296 295 294 293 290 285 277 270 267 268 275 280 283 289 293 290 282 275 272 270 268 269 272
74 43 21 10 0 355 352 348 344 340 337 334 332 331 330 329 329 328 328 328 327 326 326 326 326 325 324 322 321 320 318 317 316 315 315 314 314 314 313 312 310 309 308 307 307 306 307 307 308 308 308 307 306 305 302 300 298 298 297 296 296 295 295 292 290 290 290 288 284 277 273 270 268 270 272 276 283 288 288 284 279 275 270 271 271
29 356 351 348 342 340 337 334 334 332 330 327 325 324 323 322 323 323 323 323 323 323 323 325 324 322 320 318 317 317 315 315 314 313 312 312 312 312 312 311 310 310 310 311 310 310 310 311 311 311 311 310 309 307 304 303 301 300 299 298 296 294 294 293 292 291 288 286 285 281 277 275 272 269 268 268 270 277 284 286 285 283 277 272 269
338 333 326 324 324 325 326 327 327 326 324 321 319 318 318 318 320 321 321 320 321 322 322 323 321 317 315 314 314 314 313 312 312 311 311 310 311 312 311 311 311 311 311 312 312 311 311 312 312 311 312 311 310 309 307 305 303 301 300 299 297 296 294 292 291 289 285 281 280 279 277 277 276 273 269 267 267 269 275 281 284 285 283 279 274
291 283 290 300 309 316 321 323 323 320 318 315 314 314 315 316 318 319 320 319 321 322 322 322 318 312 311 310 311 312 310 310 310 310 309 309 311 312 312 312 313 312 311 311 311 311 311 312 311 311 311 311 310 309 308 307 305 303 302 300 299 297 295 293 290 288 287 286 284 281 278 275 274 273 271 269 270 270 273 278 281 283 283 282 279
260 268 277 286 296 305 311 315 315 312 311 310 310 309 310 313 315 317 319 319 320 322 321 319 313 308 307 308 309 310 309 309 309 309 309 309 312 312 312 313 313 313 313 312 312 312 311 312 312 312 312 312 311 309 308 307 306 304 304 303 302 301 299 297 294 292 289 286 284 280 276 272 268 268 270 271 270 272 276 278 280 283 284 282 280
258 265 269 275 284 293 298 304 305 305 303 302 302 303 306 311 314 317 321 321 321 322 319 314 308 305 305 306 307 307 307 308 308 308 308 309 312 313 313 314 314 314 315 314 313 313 313 314 313 313 313 312 311 310 309 308 307 306 304 303 303 303 302 301 298 297 294 290 287 282 277 273 269 267 266 267 269 271 274 277 280 281 281 282 283
252 258 263 269 278 286 292 297 299 298 297 296 298 301 306 312 318 321 323 324 323 321 317 310 306 305 304 305 306 306 306 306 306 306 306 308 311 312 313 314 314 314 314 313 313 313 313 314 313 313 314 313 312 311 309 308 307 305 304 303 303 303 302 301 298 296 294 292 289 286 283 280 276 273 271 270 271 272 272 275 280 282 279 280 282
250 257 264 270 278 286 291 294 295 293 293 294 296 301 306 313 318 321 324 324 321 317 313 309 307 306 305 306 305 305 305 305 305 305 304 307 310 311 312 312 312 313 313 313 313 313 313 313 313 314 314 314 313 312 311 309 308 306 304 304 303 303 302 300 298 296 293 291 289 287 286 284 282 280 276 273 271 271 272 275 278 282 282 281 281
253 260 269 275 280 285 289 291 291 290 290 292 296 302 309 315 320 324 325 323 318 314 311 309 308 307 307 306 305 305 304 304 305 303 303 307 311 312 313 313 314 314 314 313 313 313 313 314 314 314 314 315 314 313 312 311 309 307 306 305 305 305 304 301 300 298 296 295 293 290 288 286 284 282 279 276 272 268 267 270 273 277 281 283 282
256 262 272 277 278 284 290 290 289 289 289 291 296 303 311 317 323 326 324 320 314 310 309 309 308 308 308 307 307 306 305 306 306 305 305 309 312 313 313 313 314 313 313 313 313 313 314 314 313 313 314 314 313 313 313 312 311 308 308 307 307 307 306 304 303 301 300 299 296 293 291 288 287 285 281 278 274 269 265 263 264 266 272 279 280
257 260 268 273 276 285 291 291 288 288 288 289 294 302 310 317 323 325 322 316 311 307 306 307 307 307 307 307 306 306 305 306 306 305 305 308 310 312 312 311 312 311 312 312 313 313 314 314 314 313 314 313 312 312 311 311 310 308 308 308 307 308 306 304 304 303 301 300 296 294 293 291 290 289 286 283 279 275 272 268 265 262 263 268 273
260 257 260 266 275 283 288 291 289 287 288 289 294 301 310 317 322 324 321 315 310 306 305 305 305 304 304 304 303 303 303 303 303 304 305 308 310 311 311 311 311 312 313 313 314 314 315 315 314 314 314 313 312 311 310 309 308 307 307 307 306 306 304 303 303 302 301 299 296 295 294 292 292 291 289 287 283 279 277 275 272 267 263 262 264
266 260 254 259 263 262 272 285 287 285 286 289 293 301 310 318 322 323 321 316 310 306 305 305 305 304 304 303 303 302 302 303 304 306 307 309 309 309 310 311 311 312 313 314 314 315 315 315 315 314 314 313 312 311 310 309 307 307 306 306 305 305 303 302 302 301 300 298 295 295 294 292 293 291 288 286 285 284 282 279 277 273 268 264 263
268 268 265 265 261 260 272 281 284 284 285 287 292 300 310 318 321 321 318 314 310 307 306 305 305 304 303 303 304 304 305 305 306 307 308 308 309 309 310 310 310 311 312 313 314 314 314 314 313 313 312 312 311 310 310 310 308 308 307 306 305 304 303 302 301 300 298 297 296 295 293 293 294 292 290 291 290 291 291 287 283 279 274 268 265
270 276 280 276 270 271 277 278 279 281 282 284 290 300 309 316 319 318 314 310 307 306 306 305 304 304 304 304 305 305 306 306 307 308 308 309 310 309 309 309 309 311 312 313 313 313 313 312 311 311 311 310 310 310 311 310 309 308 307 306 305 303 302 301 300 298 296 296 295 293 293 295 296 294 294 297 297 297 297 295 293 289 283 276 269
274 281 284 280 273 269 268 271 275 277 276 280 288 298 307 313 315 315 311 306 303 302 304 304 303 303 304 305 305 306 306 306 307 308 309 310 310 308 309 309 310 311 311 312 313 312 312 311 310 310 310 309 310 310 310 309 308 308 307 306 304 302 301 300 298 296 294 293 292 292 293 295 297 297 297 298 298 298 298 297 296 293 289 284 278
278 283 284 280 273 266 263 265 267 267 269 274 283 295 305 311 313 312 309 302 298 299 300 301 300 301 303 304 304 305 305 306 307 308 309 309 308 308 309 309 309 310 311 312 312 311 311 310 309 309 308 308 309 309 309 308 308 308 306 305 303 301 299 297 295 292 290 290 291 292 294 296 297 296 296 297 297 297 297 295 293 291 287 285 282
280 284 285 282 276 267 264 267 263 256 259 267 277 291 303 309 310 309 305 299 296 297 297 297 298 299 300 301 302 303 304 305 306 307 308 308 308 308 308 308 309 310 310 311 311 311 310 309 308 308 308 308 309 309 309 309 309 308 305 303 301 299 297 295 292 289 288 289 291 292 294 296 297 296 296 297 297 297 296 294 291 289 285 283 282
282 285 286 285 279 267 263 268 263 254 258 267 277 292 303 307 307 305 302 297 295 295 295 294 296 297 298 299 299 301 302 304 305 306 307 307 306 306 307 308 309 310 310 311 311 311 310 309 309 309 309 309 310 310 309 309 309 307 305 303 300 298 296 294 290 288 287 289 290 292 294 296 297 297 297 298 298 297 296 293 291 289 286 283 281
282 285 286 286 281 270 264 266 262 255 262 272 282 295 302 303 303 301 297 294 294 294 293 293 295 296 296 297 299 300 302 303 304 304 305 305 306 307 308 309 309 310 311 312 312 311 310 310 309 309 309 310 310 309 309 309 308 307 305 303 300 297 295 292 289 287 286 288 290 293 295 296 297 297 297 298 298 297 297 295 293 291 289 285 280
281 284 286 285 282 274 266 264 261 257 264 276 287 296 299 299 299 298 295 293 293 293 293 293 294 295 295 296 297 298 300 301 302 303 305 306 307 307 308 309 310 310 311 311 310 309 308 308 308 307 308 308 308 308 308 309 308 307 304 301 298 296 293 289 286 285 287 290 294 296 296 296 296 296 297 297 298 299 298 297 295 293 290 286 280
282 285 286 285 283 277 268 264 260 257 266 281 290 294 294 293 294 294 291 291 292 290 291 292 293 294 294 294 295 296 298 300 301 303 305 305 306 307 307 308 308 309 309 308 307 307 306 306 306 306 307 307 307 307 308 309 309 308 306 304 302 300 296 294 292 292 293 295 297 298 298 296 294 295 296 297 298 300 299 297 297 295 291 286 280
284 286 288 286 281 276 271 265 257 258 273 285 290 290 289 289 290 289 288 289 289 289 289 291 292 293 293 292 293 296 298 300 301 303 304 305 305 305 305 306 306 306 307 307 307 307 307 307 307 307 307 307 306 307 308 308 309 310 309 307 304 301 299 297 295 294 297 299 300 300 299 297 294 293 295 298 301 302 300 297 297 296 292 285 279
285 287 288 286 279 274 271 264 256 264 278 286 289 289 289 288 288 287 287 288 288 288 288 290 292 293 293 293 295 297 299 300 301 302 303 302 302 303 304 305 306 307 308 308 308 309 308 308 308 308 308 307 307 308 309 309 310 310 308 304 299 297 296 293 290 289 293 298 299 298 298 298 297 296 298 301 303 303 301 297 294 294 289 281 274
285 287 287 283 279 275 271 263 259 270 280 285 288 289 289 289 288 286 286 287 288 288 289 290 292 293 293 294 296 297 297 298 299 299 300 300 301 303 305 306 307 308 309 309 309 309 309 309 310 309 309 308 308 310 311 310 311 311 307 301 296 295 295 291 288 288 289 291 291 291 293 294 295 297 299 300 301 302 300 296 293 293 288 276 268
283 286 286 283 280 276 271 266 267 277 285 288 290 289 288 288 286 284 285 287 288 289 289 290 291 292 292 294 295 295 295 296 297 297 298 299 301 304 306 306 307 308 308 309 309 309 310 312 312 311 310 309 310 312 312 310 313 313 307 299 295 294 293 291 288 286 285 285 285 286 289 290 289 293 297 297 298 299 298 294 292 293 288 276 268
283 286 285 281 277 274 271 269 271 281 288 291 291 291 291 289 287 286 287 288 289 290 290 290 291 290 291 292 293 293 294 294 294 296 297 299 302 304 305 306 306 307 308 309 310 311 312 314 314 313 311 310 312 313 312 312 315 313 307 300 295 292 292 291 289 286 285 284 283 285 289 289 289 292 294 295 298 299 296 292 291 292 287 278 271
285 288 285 278 275 273 271 268 269 278 287 291 292 293 291 288 287 288 288 290 291 290 290 290 290 290 290 291 292 291 291 292 293 295 297 299 301 303 304 305 306 307 309 311 312 313 314 315 315 313 312 311 313 314 313 314 315 313 307 301 296 293 292 291 290 289 287 284 283 287 291 292 292 292 290 293 299 300 296 292 291 290 287 280 274
285 286 282 276 274 273 271 270 273 281 288 291 293 293 290 287 287 287 287 289 290 289 288 289 289 289 291 291 291 291 291 291 293 294 296 299 301 302 304 305 305 306 309 311 313 314 314 315 315 315 314 313 313 314 314 314 316 314 309 302 297 297 296 294 293 292 290 286 286 290 293 294 293 291 290 296 302 302 298 295 291 288 285 281 276
282 282 279 274 271 273 278 280 282 286 290 292 293 292 288 286 285 286 288 289 288 287 288 288 288 289 290 291 290 291 290 291 293 295 297 299 301 302 304 305 305 307 309 312 313 314 314 314 315 316 316 314 314 315 314 314 316 315 309 304 301 300 298 295 294 293 292 290 289 291 292 292 290 291 295 300 302 301 300 299 296 293 287 280 276
281 279 278 272 269 277 287 290 289 290 292 294 294 291 286 284 285 287 289 288 287 288 289 288 288 288 289 290 290 289 290 291 292 295 297 299 301 302 304 305 305 306 308 311 313 313 314 314 315 316 317 315 313 314 315 315 315 312 305 303 304 303 299 297 297 295 294 294 294 292 290 289 291 296 300 301 299 299 303 303 302 301 294 282 276
284 281 278 268 266 279 291 294 292 293 295 295 294 290 285 284 286 288 288 288 288 290 288 286 287 289 289 289 289 289 288 289 291 294 296 298 300 302 303 303 303 304 307 310 313 313 313 314 314 315 315 313 313 313 313 313 314 311 303 301 305 305 302 300 300 298 298 298 296 293 290 289 293 299 300 297 296 300 305 306 307 307 301 288 280
285 284 282 269 267 280 292 296 295 295 295 294 292 289 284 284 288 289 289 290 293 292 288 286 288 290 290 290 290 289 288 289 291 294 296 298 300 301 303 303 303 303 305 308 312 312 312 312 313 313 313 313 312 312 313 315 317 313 303 299 303 305 305 304 303 302 302 300 298 298 294 292 296 300 299 296 297 301 304 306 309 310 305 294 282
285 285 283 272 270 279 290 296 297 295 294 293 291 288 285 285 288 289 292 296 296 291 287 288 290 291 291 292 292 290 290 291 293 295 296 298 299 301 302 302 302 302 303 307 310 311 311 311 312 313 312 313 313 313 316 322 325 319 307 300 300 303 304 305 306 305 304 303 303 302 297 296 300 303 300 299 301 302 301 304 309 309 303 296 282
285 285 285 280 275 278 287 294 297 295 293 293 292 289 287 287 288 292 297 298 293 288 288 290 291 292 293 294 293 291 290 291 292 294 295 297 299 300 301 301 301 301 302 305 308 310 311 312 313 314 313 313 315 317 320 326 330 327 315 302 298 299 300 304 309 310 307 305 305 302 297 300 306 306 302 300 300 300 298 302 309 308 300 294 284
286 283 285 285 279 278 284 292 294 293 292 293 292 290 289 288 291 296 299 294 288 287 289 290 291 292 294 294 293 291 289 290 291 293 294 296 298 300 300 301 301 300 301 304 307 311 313 314 315 315 314 315 316 318 322 326 330 331 322 306 300 299 296 302 311 312 308 306 304 299 300 307 310 306 301 299 297 298 300 304 310 309 299 293 289
289 285 288 288 281 275 281 289 291 291 293 293 293 292 290 290 295 299 296 290 287 288 289 290 291 293 294 294 293 291 290 290 292 293 295 297 299 300 300 301 300 300 302 305 308 311 314 315 316 315 315 316 318 319 321 324 327 329 325 315 309 304 299 305 311 309 306 305 301 298 303 308 308 303 300 299 297 301 306 307 309 309 302 293 292
287 286 291 292 284 277 283 290 293 293 294 294 294 294 293 293 298 299 294 289 288 288 289 290 292 293 294 295 293 292 291 291 292 293 295 297 300 301 301 301 301 301 303 305 307 310 313 315 315 314 315 317 318 318 320 322 324 327 326 320 315 312 310 312 311 306 304 303 298 300 306 310 309 308 308 307 305 307 310 309 308 308 303 293 288
288 292 297 295 287 279 283 292 297 297 296 295 295 294 294 297 299 298 295 291 289 289 290 291 292 293 294 295 294 294 293 292 293 294 296 298 300 301 302 302 302 303 304 306 307 308 311 313 314 312 311 312 314 315 317 321 323 324 323 321 320 320 319 315 308 305 306 301 299 306 314 316 315 316 315 313 310 308 307 308 307 304 299 289 278
295 300 302 298 289 283 287 295 300 299 297 296 296 296 296 298 300 298 296 293 291 290 291 291 292 294 295 296 296 296 295 295 295 296 297 299 301 302 303 303 304 304 305 306 306 305 308 311 311 309 307 306 307 308 311 316 321 321 320 320 320 320 318 312 309 310 309 302 303 310 316 317 316 317 316 312 308 304 302 306 309 308 305 296 279
302 304 305 299 288 287 296 302 302 302 300 298 296 297 298 299 299 298 295 293 291 291 291 291 293 294 296 297 298 297 296 296 297 298 298 299 301 303 303 303 303 303 303 303 303 302 305 309 309 306 304 302 297 299 306 313 318 318 315 314 314 316 315 310 310 313 308 303 306 313 316 317 316 316 317 316 311 307 305 308 312 317 318 311 293
307 307 305 297 289 292 302 306 304 302 300 297 296 298 300 300 299 296 293 292 291 290 289 291 293 294 297 298 298 296 296 297 299 300 300 301 302 303 303 303 302 302 301 302 303 303 307 311 307 301 298 295 292 297 305 311 313 311 308 307 307 309 308 305 308 310 305 303 310 315 315 315 315 316 319 322 321 317 313 311 315 323 329 326 312
309 307 303 298 295 298 304 307 305 302 299 297 299 301 301 301 298 295 292 290 289 289 289 291 294 295 298 299 298 297 298 300 302 303 304 304 304 304 304 304 305 305 304 305 305 305 306 307 301 294 292 291 293 298 304 306 304 304 302 300 298 298 300 303 307 306 303 306 312 314 312 313 315 318 323 327 329 328 324 320 320 325 335 339 331
310 308 304 302 302 304 307 307 304 302 301 301 302 303 303 302 299 295 291 289 288 289 290 293 295 297 298 299 297 298 300 301 303 305 306 306 306 305 304 305 305 304 304 303 302 299 296 295 292 290 292 294 296 298 300 299 299 299 299 297 296 296 300 305 306 304 304 310 313 310 308 312 315 319 326 331 333 335 333 329 328 329 335 341 340